Weather History for KIWD - December, 2014

Change the Weather History Date:

Thursday, December 4, 2014

  Actual Average Record
Temperature  
Mean Temperature 10 °F -  
Max Temperature 24 °F 30 °F 46 °F (2001)
Min Temperature -5 °F 18 °F -5 °F (2014)
Degree Days  
Heating Degree Days 56    
Moisture  
Dew Point 3 °F    
Average Humidity 63    
Maximum Humidity 100    
Minimum Humidity 43    
Precipitation  
Precipitation 0.00 in - - ()
Sea Level Pressure  
Sea Level Pressure 30.19 in    
Wind  
Wind Speed 6 mph (SSW)    
Max Wind Speed 17 mph    
Max Gust Speed 25 mph    
Visibility 10 miles    
Events      
Averages and records for this station are not official NWS values.
T = Trace of Precipitation, MM = Missing Value Source: NWS Daily Summary

Daily Weather History Graph

Daily Weather History Graph

Search for Another Location

Airport or City:

Trip Planner

Search our weather history database for the weather conditions in past years. The results will help you decide how hot, cold, wet, or windy it might be!

Date:

Astronomy

Dec. 04, 2014 Rise Set
Actual Time 7:27 AM CST 4:14 PM CST
Civil Twilight 6:52 AM CST 4:48 PM CST
Nautical Twilight 6:14 AM CST 5:26 PM CST
Astronomical Twilight 5:38 AM CST 6:02 PM CST
Moon 3:22 PM CST 5:11 AM CST
Length of Visible Light 9h 55m
Length of Day
8h 46m
Waxing Gibbous, 97% of the Moon is Illuminated
Dec 4
Waxing Gibbous
Dec 6
Full
Dec 14
Last Quarter
Dec 21
New
Dec 28
First Quarter

Hourly Weather History & Observations

Time (CST) Temp. Windchill Dew Point Humidity Pressure Visibility Wind Dir Wind Speed Gust Speed Precip Events Conditions
12:15 AM 10.4 °F 0.8 °F 3.2 °F 73% 30.25 in 10.0 mi WSW 5.8 mph - N/A   Clear
12:35 AM 8.6 °F -1.3 °F 3.2 °F 79% 30.25 in 10.0 mi WSW 5.8 mph - N/A   Clear
12:55 AM 6.8 °F -2.0 °F -0.4 °F 72% 30.26 in 10.0 mi WSW 4.6 mph - N/A   Clear
1:15 AM 6.8 °F -4.8 °F -0.4 °F 72% 30.26 in 10.0 mi WSW 6.9 mph - N/A   Clear
1:35 AM 6.8 °F -4.8 °F 1.4 °F 79% 30.27 in 10.0 mi WSW 6.9 mph - N/A   Clear
1:55 AM 6.8 °F -0.1 °F 3.2 °F 85% 30.27 in 10.0 mi WSW 3.5 mph - N/A   Clear
2:15 AM 10.4 °F 2.2 °F 6.8 °F 85% 30.28 in 10.0 mi WSW 4.6 mph - N/A   Clear
2:35 AM 6.8 °F -2.0 °F -7.6 °F 52% 30.28 in 10.0 mi WSW 4.6 mph - N/A   Clear
2:55 AM 6.8 °F -3.5 °F 3.2 °F 85% 30.27 in 10.0 mi SW 5.8 mph - N/A   Clear
3:15 AM 1.4 °F - -7.6 °F 66% 30.27 in 10.0 mi Calm Calm - N/A   Clear
3:35 AM 1.4 °F - -4.0 °F 78% 30.27 in 10.0 mi Calm Calm - N/A   Clear
3:55 AM -0.4 °F - -2.2 °F 92% 30.27 in 10.0 mi Calm Calm - N/A   Clear
4:15 AM -0.4 °F - -5.8 °F 78% 30.27 in 10.0 mi Calm Calm - N/A   Clear
4:35 AM -0.4 °F - -0.4 °F 100% 30.27 in 10.0 mi Calm Calm - N/A   Clear
4:55 AM 3.2 °F - 3.2 °F 100% 30.27 in 10.0 mi Calm Calm - N/A   Clear
5:15 AM -0.4 °F - -9.4 °F 66% 30.26 in 10.0 mi Calm Calm - N/A   Clear
5:35 AM -5.8 °F -14.5 °F -9.4 °F 84% 30.26 in 10.0 mi SSW 3.5 mph - N/A   Clear
5:55 AM -0.4 °F -12.0 °F - N/A% 30.26 in 10.0 mi South 5.8 mph - N/A   Clear
6:15 AM -0.4 °F -8.3 °F -7.6 °F 72% 30.26 in 10.0 mi SSW 3.5 mph - N/A   Clear
6:35 AM -0.4 °F -10.4 °F -9.4 °F 66% 30.26 in 10.0 mi South 4.6 mph - N/A   Clear
6:55 AM 3.2 °F -9.1 °F 1.4 °F 92% 30.26 in 10.0 mi SSE 6.9 mph - N/A   Clear
7:15 AM 3.2 °F -4.2 °F -2.2 °F 78% 30.26 in 10.0 mi South 3.5 mph - N/A   Clear
7:35 AM 5.0 °F -10.0 °F 5.0 °F 100% 30.26 in 10.0 mi South 10.4 mph - N/A   Clear
7:55 AM 5.0 °F -6.9 °F -9.4 °F 52% 30.26 in 10.0 mi SSE 6.9 mph - N/A   Clear
8:15 AM 8.6 °F -4.7 °F 6.8 °F 92% 30.27 in 10.0 mi South 9.2 mph - N/A   Clear
8:35 AM 8.6 °F -2.6 °F 3.2 °F 79% 30.27 in 10.0 mi South 6.9 mph - N/A   Clear
8:55 AM 10.4 °F 4.0 °F 1.4 °F 67% 30.27 in 10.0 mi South 3.5 mph - N/A   Mostly Cloudy
9:15 AM 10.4 °F 0.8 °F 5.0 °F 79% 30.27 in 10.0 mi SSW 5.8 mph - N/A   Overcast
9:35 AM 12.2 °F 1.7 °F 5.0 °F 73% 30.26 in 10.0 mi South 6.9 mph - N/A   Overcast
9:55 AM 12.2 °F -0.2 °F 3.2 °F 67% 30.26 in 10.0 mi South 9.2 mph 16.1 mph N/A   Overcast
10:15 AM 15.8 °F 3.4 °F 5.0 °F 62% 30.26 in 10.0 mi SSW 10.4 mph 17.3 mph N/A   Overcast
10:35 AM 17.6 °F 8.2 °F 3.2 °F 53% 30.25 in 10.0 mi South 6.9 mph - N/A   Overcast
10:55 AM 17.6 °F 8.2 °F 3.2 °F 53% 30.24 in 10.0 mi South 6.9 mph - N/A   Overcast
11:15 AM 19.4 °F 7.2 °F 3.2 °F 49% 30.23 in 10.0 mi South 11.5 mph - N/A   Overcast
11:35 AM 19.4 °F 10.4 °F 3.2 °F 49% 30.22 in 10.0 mi SSW 6.9 mph 16.1 mph N/A   Overcast
11:55 AM 19.4 °F 9.5 °F 5.0 °F 54% 30.21 in 10.0 mi SSW 8.1 mph - N/A   Overcast
12:15 PM 21.2 °F 14.9 °F 3.2 °F 46% 30.20 in 10.0 mi South 4.6 mph - N/A   Overcast
12:35 PM 21.2 °F 13.6 °F 3.2 °F 46% 30.19 in 10.0 mi South 5.8 mph - N/A   Overcast
12:55 PM 21.2 °F 12.6 °F 3.2 °F 46% 30.19 in 10.0 mi South 6.9 mph - N/A   Overcast
1:15 PM 21.2 °F 12.6 °F 5.0 °F 50% 30.17 in 10.0 mi SSW 6.9 mph - N/A   Overcast
1:35 PM 21.2 °F 12.6 °F 6.8 °F 54% 30.17 in 10.0 mi SSW 6.9 mph - N/A   Overcast
1:55 PM 23.0 °F 15.8 °F 5.0 °F 46% 30.16 in 10.0 mi South 5.8 mph - N/A   Overcast
2:15 PM 23.0 °F 12.4 °F 6.8 °F 50% 30.15 in 10.0 mi South 10.4 mph 17.3 mph N/A   Overcast
2:35 PM 24.8 °F 15.3 °F 6.8 °F 46% 30.14 in 10.0 mi South 9.2 mph 16.1 mph N/A   Overcast
2:55 PM 24.8 °F 14.6 °F 6.8 °F 46% 30.13 in 10.0 mi SSE 10.4 mph - N/A   Overcast
3:15 PM 24.8 °F 14.6 °F 6.8 °F 46% 30.12 in 10.0 mi South 10.4 mph 16.1 mph N/A   Mostly Cloudy
3:35 PM 24.8 °F 14.6 °F 6.8 °F 46% 30.11 in 10.0 mi South 10.4 mph 18.4 mph N/A   Mostly Cloudy
3:55 PM 24.8 °F 15.3 °F 5.0 °F 43% 30.11 in 10.0 mi South 9.2 mph 17.3 mph N/A   Partly Cloudy
4:15 PM 23.0 °F 12.4 °F 5.0 °F 46% 30.11 in 10.0 mi South 10.4 mph 18.4 mph N/A   Clear
4:35 PM 23.0 °F 14.7 °F 3.2 °F 43% 30.11 in 10.0 mi SSE 6.9 mph - N/A   Clear
4:55 PM 21.2 °F 11.7 °F 3.2 °F 46% 30.10 in 10.0 mi SE 8.1 mph - N/A   Clear
5:15 PM 21.2 °F 13.6 °F 3.2 °F 46% 30.10 in 10.0 mi SSE 5.8 mph - N/A   Clear
5:35 PM 21.2 °F 12.6 °F 3.2 °F 46% 30.10 in 10.0 mi SSE 6.9 mph - N/A   Clear
5:55 PM 21.2 °F 11.7 °F 3.2 °F 46% 30.10 in 10.0 mi SSE 8.1 mph 17.3 mph N/A   Clear
6:15 PM 21.2 °F 10.9 °F 5.0 °F 50% 30.10 in 10.0 mi South 9.2 mph - N/A   Clear
6:35 PM 21.2 °F 9.5 °F 3.2 °F 46% 30.11 in 10.0 mi South 11.5 mph 19.6 mph N/A   Clear
6:55 PM 19.4 °F 7.9 °F 6.8 °F 58% 30.12 in 10.0 mi SSW 10.4 mph 17.3 mph N/A   Clear
7:15 PM 19.4 °F 7.2 °F 5.0 °F 54% 30.12 in 10.0 mi South 11.5 mph 23.0 mph N/A   Clear
7:35 PM 19.4 °F 6.6 °F 5.0 °F 54% 30.12 in 10.0 mi South 12.7 mph 20.7 mph N/A   Clear
7:55 PM 19.4 °F 6.6 °F 6.8 °F 58% 30.11 in 10.0 mi South 12.7 mph 19.6 mph N/A   Clear
8:15 PM 19.4 °F 6.6 °F 6.8 °F 58% 30.10 in 10.0 mi South 12.7 mph 24.2 mph N/A   Mostly Cloudy
8:35 PM 19.4 °F 6.6 °F 6.8 °F 58% 30.10 in 10.0 mi SSW 12.7 mph 20.7 mph N/A   Overcast
8:55 PM 19.4 °F 11.5 °F 6.8 °F 58% 30.10 in 10.0 mi WSW 5.8 mph 16.1 mph N/A   Mostly Cloudy
9:15 PM 19.4 °F 6.6 °F 6.8 °F 58% 30.10 in 10.0 mi South 12.7 mph 18.4 mph N/A   Mostly Cloudy
9:35 PM 19.4 °F 11.5 °F 6.8 °F 58% 30.11 in 10.0 mi South 5.8 mph 20.7 mph N/A   Mostly Cloudy
9:55 PM 19.4 °F 12.8 °F 8.6 °F 63% 30.10 in 10.0 mi South 4.6 mph 16.1 mph N/A   Scattered Clouds
10:15 PM 19.4 °F 10.4 °F 8.6 °F 63% 30.10 in 10.0 mi SSW 6.9 mph 21.9 mph N/A   Scattered Clouds
10:35 PM 19.4 °F 10.4 °F 8.6 °F 63% 30.10 in 10.0 mi SSW 6.9 mph 17.3 mph N/A   Overcast
10:55 PM 19.4 °F 7.9 °F 10.4 °F 68% 30.10 in 10.0 mi South 10.4 mph 19.6 mph N/A   Overcast
11:35 PM 21.2 °F 8.9 °F 10.4 °F 63% 30.08 in 10.0 mi South 12.7 mph 19.6 mph N/A   Overcast
11:55 PM 19.4 °F 4.5 °F 10.4 °F 68% 30.08 in 10.0 mi South 17.3 mph 25.3 mph N/A   Scattered Clouds